Flag for Germany Weather past 2 weeks in Eckernförde, Schleswig-Holstein, Germany

Now
54 °F

Passing clouds.


Feels Like: 54 °F
Forecast: 56 / 62 °F
Wind: 2 mph from Southwest

Location: Schleswig

Current Time: Jul 7, 2015 at 2:29:58 AM

Latest Report: Jul 7, 2015 at 2:00 AM


Visibility: 19 mi

Pressure: 30.02 "Hg

Humidity: 93%

Dew point: 52 °F

Location of EckernfördeLocation

Historic Weather in Eckernförde — Graph

°F

Eckernförde temperature yesterday

Maximum temperature yesterday: 68 °F (at 3:00 PM)
Minimum temperature yesterday: 58 °F (at 10:00 PM)
Average temperature yesterday: 63 °F

Past Weeks' High & Low Weather Summary

 TemperatureHumidityPressure
High83 °F (Jul 3, 3:00 PM)98% (Jun 22, 1:00 AM)30.26 "Hg (Jun 22, 1:00 AM)
Low48 °F (Jun 23, 6:00 AM)43% (Jul 2, 1:00 PM)29.65 "Hg (Jun 22, 9:00 PM)
Average63 °F78%30.06 "Hg
* Reported Jun 22 1:00 AM — Jul 7 1:00 AM, Eckernförde, Weather by CustomWeather, © 2015

Note: Actual official high and low records may vary slightly from our data, if they occured in-between our weather recording intervals... More about our weather records

Advertising

Eckernförde weather history for previous 24 hours

 ConditionsComfort  
Time TempWeatherWind HumidityBarometerVisibility
1:00 AM
Tue, Jul 7
54 °FPassing clouds.2 mph92%30.04 "Hg25 mi
12:00 AM55 °FPassing clouds.2 mph91%30.04 "Hg25 mi
10:00 PM
Mon, Jul 6
58 °FPassing clouds.2 mph84%30.07 "Hg25 mi
9:00 PM60 °FPartly sunny.3 mph77%30.06 "Hg25 mi
8:00 PM63 °FScattered clouds.6 mph65%30.06 "Hg25 mi
7:00 PM65 °FScattered clouds.8 mph58%30.07 "Hg25 mi
6:00 PM66 °FScattered clouds.8 mph53%30.08 "Hg19 mi
4:00 PM68 °FPartly sunny.10 mph56%30.08 "Hg19 mi
3:00 PM68 °FPartly sunny.10 mph58%30.07 "Hg19 mi
2:00 PM65 °FPartly sunny.10 mph64%30.08 "Hg19 mi
1:00 PM65 °FPartly sunny.9 mph66%30.06 "Hg28 mi
12:00 PM64 °FPartly sunny.9 mph69%30.05 "Hg19 mi
10:00 AM65 °FPartly sunny.9 mph73%30.01 "Hg19 mi
9:00 AM64 °FPartly sunny.7 mph81%29.99 "Hg19 mi
8:00 AM61 °FOvercast.7 mph85%29.97 "Hg19 mi
7:00 AM61 °FPartly sunny.7 mph89%29.96 "Hg12 mi
6:00 AM59 °FPassing clouds.6 mph95%29.95 "Hg9 mi
4:00 AM59 °FPassing clouds.6 mph95%29.94 "Hg11 mi
3:00 AM61 °FPassing clouds.6 mph93%29.94 "Hg12 mi
2:00 AM61 °FOvercast.8 mph94%29.93 "Hg12 mi
Weather by CustomWeather, © 2015

See weather overviewHow to use our weather pages